Soldotna, AK

5:32 PM AKST on December 08, 2019 (GMT -0900)
Soldotna

Weather History for PASX - October, 2019

Change the Weather History Date:

Sunday, October 20, 2019

  Actual Average Record
Temperature  
Mean Temperature 38 °F -  
Max Temperature 43 °F 38 °F 52 °F (1969)
Min Temperature 35 °F 24 °F 7 °F (1965)
Degree Days  
Heating Degree Days 26    
Moisture  
Dew Point 36 °F    
Average Humidity 96    
Maximum Humidity 100    
Minimum Humidity 79    
Precipitation  
Precipitation 0.06 in - - ()
Sea Level Pressure  
Sea Level Pressure 29.68 in    
Wind  
Wind Speed 5 mph (ENE)    
Max Wind Speed 9 mph    
Max Gust Speed -    
Visibility 6 miles    
Events Fog , Rain    
Averages and records for this station are not official NWS values.
T = Trace of Precipitation, MM = Missing Value Source: NWS Daily Summary

Daily Weather History Graph

Daily Weather History Graph

Search for Another Location

Airport or City:

Astronomy

Oct. 20, 2019 Rise Set
Actual Time 8:57 AM AKDT 6:39 PM AKDT
Civil Twilight 8:13 AM AKDT 7:22 PM AKDT
Nautical Twilight 7:24 AM AKDT 8:11 PM AKDT
Astronomical Twilight 6:35 AM AKDT 9:00 PM AKDT
Moon 10:47 PM AKDT (10/20) 4:48 PM AKDT (10/20)
Length of Visible Light 11h 08m
Length of Day
9h 41m
Waning Gibbous, 58% of the Moon is Illuminated
Oct 20
Waning Gibbous
Oct 21
Last Quarter
Oct 27
New
Nov 4
First Quarter
Nov 12
Full

Hourly Weather History & Observations

Time (AKDT) Temp. Windchill Dew Point Humidity Pressure Visibility Wind Dir Wind Speed Gust Speed Precip Events Conditions
12:56 AM 37.9 °F 34.4 °F 37.0 °F 97% 29.68 in 10.0 mi ENE 4.6 mph - N/A   Overcast
1:56 AM 37.9 °F 33.5 °F 36.0 °F 93% 29.68 in 10.0 mi ENE 5.8 mph - N/A   Overcast
2:50 AM 37.4 °F 32.8 °F 35.6 °F 93% 29.65 in 4.0 mi ENE 5.8 mph - N/A   Overcast
2:56 AM 37.0 °F 32.4 °F 36.0 °F 96% 29.68 in 3.0 mi East 5.8 mph - N/A   Overcast
3:13 AM 35.6 °F 30.7 °F 35.6 °F 100% 29.66 in 0.8 mi East 5.8 mph - N/A   Overcast
3:33 AM 35.6 °F 30.7 °F 35.6 °F 100% 29.66 in 1.2 mi East 5.8 mph - N/A   Overcast
3:56 AM 36.0 °F 32.1 °F 35.1 °F 97% 29.69 in 1.5 mi East 4.6 mph - N/A   Overcast
4:31 AM 35.6 °F 29.9 °F 35.6 °F 100% 29.66 in 0.5 mi East 6.9 mph - N/A Fog Fog
4:56 AM 35.1 °F - 35.1 °F 100% 29.69 in 0.5 mi Calm Calm - N/A Fog Fog
5:19 AM 35.6 °F 31.7 °F 35.6 °F 100% 29.66 in 1.0 mi ENE 4.6 mph - N/A   Overcast
5:34 AM 35.6 °F - 35.6 °F 100% 29.67 in 1.2 mi Calm Calm - N/A   Overcast
5:56 AM 36.0 °F 33.3 °F 36.0 °F 100% 29.70 in 2.0 mi NE 3.5 mph - N/A   Overcast
6:07 AM 35.6 °F 32.8 °F 35.6 °F 100% 29.67 in 1.0 mi ENE 3.5 mph - N/A   Overcast
6:15 AM 35.6 °F 31.7 °F 35.6 °F 100% 29.67 in 0.5 mi East 4.6 mph - N/A Fog Fog
6:49 AM 35.6 °F 30.7 °F 35.6 °F 100% 29.67 in 1.0 mi ENE 5.8 mph - N/A   Overcast
6:56 AM 36.0 °F 32.1 °F 36.0 °F 100% 29.70 in 1.2 mi ENE 4.6 mph - N/A   Overcast
7:16 AM 35.6 °F 28.6 °F 35.6 °F 100% 29.67 in 2.5 mi NE 9.2 mph - N/A   Overcast
7:28 AM 35.6 °F 29.9 °F 35.6 °F 100% 29.67 in 7.0 mi ENE 6.9 mph - N/A   Overcast
7:56 AM 36.0 °F 30.3 °F 36.0 °F 100% 29.70 in 7.0 mi ENE 6.9 mph - N/A   Overcast
8:56 AM 36.0 °F 32.1 °F 36.0 °F 100% 29.70 in 10.0 mi NE 4.6 mph - N/A   Overcast
9:47 AM 35.6 °F 32.8 °F 35.6 °F 100% 29.67 in 10.0 mi NE 3.5 mph - N/A   Overcast
9:56 AM 36.0 °F 30.3 °F 35.1 °F 97% 29.70 in 10.0 mi NE 6.9 mph - N/A   Overcast
10:56 AM 36.0 °F 32.1 °F 34.0 °F 93% 29.70 in 10.0 mi NE 4.6 mph - N/A   Overcast
11:56 AM 37.9 °F 34.4 °F 35.1 °F 89% 29.71 in 10.0 mi NE 4.6 mph - N/A   Overcast
12:33 PM 39.2 °F 35.9 °F 35.6 °F 87% 29.67 in 10.0 mi NNE 4.6 mph - N/A   Mostly Cloudy
12:56 PM 39.9 °F 35.1 °F 36.0 °F 86% 29.70 in 10.0 mi NE 6.9 mph - N/A   Scattered Clouds
1:56 PM 41.0 °F - 37.9 °F 89% 29.69 in 10.0 mi Calm Calm - 0.00 in   Mostly Cloudy
2:56 PM 42.1 °F 39.2 °F 37.0 °F 82% 29.68 in 10.0 mi North 4.6 mph - 0.00 in   Mostly Cloudy
3:56 PM 42.1 °F 38.4 °F 36.0 °F 79% 29.67 in 10.0 mi NNE 5.8 mph - N/A   Scattered Clouds
4:56 PM 42.1 °F 40.2 °F 36.0 °F 79% 29.66 in 10.0 mi NE 3.5 mph - N/A   Scattered Clouds
6:56 PM 41.0 °F - 39.0 °F 93% 29.67 in 10.0 mi Calm Calm - 0.01 in Rain Light Rain
7:56 PM 39.9 °F - 39.0 °F 97% 29.67 in 10.0 mi Calm Calm - 0.03 in Rain Light Rain
8:56 PM 39.0 °F - 37.9 °F 96% 29.67 in 10.0 mi Calm Calm - 0.02 in Rain Light Rain
9:56 PM 39.0 °F 35.7 °F 39.0 °F 100% 29.66 in 10.0 mi NNE 4.6 mph - 0.00 in   Scattered Clouds
10:56 PM 37.9 °F - 37.9 °F 100% 29.67 in 10.0 mi Calm Calm - 0.00 in Rain Light Rain
11:56 PM 37.9 °F - 37.0 °F 97% 29.67 in 10.0 mi Calm Calm - 0.00 in   Overcast